Aurora, OR

5:48 AM PDT on July 25, 2017 (GMT -0700)
Aurora State

Weather History for KUAO - September, 2013

Change the Weather History Date:

Friday, September 27, 2013

  Actual Average Record
Temperature  
Mean Temperature 50 °F -  
Max Temperature 57 °F - 98 °F (2003)
Min Temperature 43 °F - 36 °F (1999)
Degree Days  
Heating Degree Days 15    
Month to date heating degree days 82  
Since 1 July heating degree days 92  
Cooling Degree Days 0    
Month to date cooling degree days 64  
Year to date cooling degree days 426  
Moisture  
Dew Point 48 °F    
Average Humidity 92    
Maximum Humidity 100    
Minimum Humidity 83    
Precipitation  
Precipitation 0.22 in - 0.43 in (1955)
Month to date precipitation 4.44  
Year to date precipitation 18.02  
Sea Level Pressure  
Sea Level Pressure 30.10 in    
Wind  
Wind Speed 10 mph (SSW)    
Max Wind Speed 22 mph    
Max Gust Speed 31 mph    
Visibility 6 miles    
Events Fog , Rain    
T = Trace of Precipitation, MM = Missing Value Source: NWS Daily Summary

Daily Weather History Graph

Daily Weather History Graph

Search for Another Location

Airport or City:

Trip Planner

Search our weather history database for the weather conditions in past years. The results will help you decide how hot, cold, wet, or windy it might be!

Date:

Astronomy

Sep. 27, 2013 Rise Set
Actual Time 7:04 AM PDT 6:58 PM PDT
Civil Twilight 6:35 AM PDT 7:27 PM PDT
Nautical Twilight 6:00 AM PDT 8:01 PM PDT
Astronomical Twilight 5:25 AM PDT 8:36 PM PDT
Moon No Moon Rise 2:55 PM PDT (9/27)
Length of Visible Light 12h 52m
Length of Day
11h 53m
Last Quarter, 44% of the Moon is Illuminated
Sep 27
Last Quarter
Oct 4
New
Oct 11
First Quarter
Oct 18
Full
Oct 26
Last Quarter

Hourly Weather History & Observations

Time (PDT) Temp. Windchill Dew Point Humidity Pressure Visibility Wind Dir Wind Speed Gust Speed Precip Events Conditions
12:39 AM 48.2 °F - 46.4 °F 93% 30.19 in 1.8 mi Calm Calm - N/A   Mostly Cloudy
12:48 AM 46.4 °F - 46.4 °F 100% 30.19 in 0.5 mi Calm Calm - N/A Fog Fog
12:53 AM 46.9 °F - 46.9 °F 100% 30.19 in 0.8 mi Calm Calm - N/A   Scattered Clouds
1:02 AM 46.4 °F - 46.4 °F 100% 30.18 in 2.0 mi Calm Calm - N/A   Partly Cloudy
1:12 AM 46.4 °F - 46.4 °F 100% 30.19 in 0.8 mi Calm Calm - N/A   Partly Cloudy
1:18 AM 46.4 °F - 46.4 °F 100% 30.19 in 0.5 mi Calm Calm - N/A Fog Fog
1:53 AM 45.0 °F - 45.0 °F 100% 30.19 in 0.8 mi Calm Calm - N/A   Mist
2:05 AM 44.6 °F - 44.6 °F 100% 30.19 in 1.0 mi Calm Calm - N/A   Mist
2:16 AM 44.6 °F - 44.6 °F 100% 30.19 in 0.5 mi Calm Calm - N/A Fog Fog
2:23 AM 44.6 °F - 44.6 °F 100% 30.19 in 0.2 mi Calm Calm - N/A Fog Fog
2:53 AM 44.1 °F - 44.1 °F 100% 30.19 in 0.5 mi Calm Calm - N/A Fog Fog
3:28 AM 42.8 °F - 42.8 °F 100% 30.18 in 0.5 mi Calm Calm - N/A Fog Fog
3:49 AM 42.8 °F - 42.8 °F 100% 30.18 in 0.5 mi Calm Calm - N/A Fog Fog
3:53 AM 44.1 °F - 44.1 °F 100% 30.18 in 1.0 mi Calm Calm - N/A   Mist
3:57 AM 44.6 °F - 44.6 °F 100% 30.18 in 2.5 mi Calm Calm - N/A   Clear
4:04 AM 44.6 °F - 44.6 °F 100% 30.18 in 6.0 mi Calm Calm - N/A   Clear
4:53 AM 45.0 °F - 44.1 °F 97% 30.16 in 4.0 mi Calm Calm - N/A   Partly Cloudy
4:55 AM 44.6 °F - 44.6 °F 100% 30.16 in 1.8 mi Calm Calm - N/A   Partly Cloudy
5:05 AM 44.6 °F - 44.6 °F 100% 30.16 in 0.8 mi Calm Calm - N/A   Mostly Cloudy
5:11 AM 44.6 °F - 44.6 °F 100% 30.16 in 1.2 mi Calm Calm - N/A   Mostly Cloudy
5:22 AM 44.6 °F - 44.6 °F 100% 30.16 in 0.8 mi Calm Calm - N/A   Overcast
5:30 AM 44.6 °F - 44.6 °F 100% 30.16 in 2.0 mi Calm Calm - N/A   Overcast
5:38 AM 44.6 °F - 44.6 °F 100% 30.16 in 6.0 mi Calm Calm - N/A   Overcast
5:53 AM 45.0 °F - 45.0 °F 100% 30.16 in 8.0 mi Calm Calm - N/A   Overcast
6:53 AM 46.0 °F - 46.0 °F 100% 30.17 in 10.0 mi Calm Calm - N/A   Mostly Cloudy
7:19 AM 46.4 °F 45.2 °F 46.4 °F 100% 30.15 in 10.0 mi SSW 3.5 mph - N/A   Overcast
7:53 AM 48.0 °F - 46.9 °F 96% 30.15 in 10.0 mi South 4.6 mph - N/A   Overcast
8:53 AM 51.1 °F - 48.0 °F 89% 30.16 in 10.0 mi SSW 6.9 mph - N/A   Overcast
9:53 AM 53.1 °F - 48.9 °F 86% 30.16 in 10.0 mi SSW 8.1 mph - N/A   Overcast
10:53 AM 54.0 °F - 50.0 °F 86% 30.13 in 10.0 mi South 15.0 mph - 0.02 in Rain Light Rain
11:53 AM 55.0 °F - 51.1 °F 86% 30.11 in 10.0 mi SSW 15.0 mph 21.9 mph 0.02 in   Overcast
12:53 PM 57.0 °F - 50.0 °F 77% 30.09 in 10.0 mi South 12.7 mph 24.2 mph 0.00 in Rain Light Rain
1:53 PM 55.0 °F - 52.0 °F 89% 30.07 in 7.0 mi SSW 8.1 mph - 0.03 in Rain Light Rain
2:53 PM 55.0 °F - 50.0 °F 83% 30.06 in 10.0 mi SSW 16.1 mph 26.5 mph 0.01 in   Overcast
3:53 PM 55.0 °F - 48.9 °F 80% 30.04 in 10.0 mi South 20.7 mph 27.6 mph 0.00 in Rain Light Rain
4:53 PM 55.0 °F - 50.0 °F 83% 30.04 in 10.0 mi SSW 17.3 mph 27.6 mph 0.00 in   Overcast
5:37 PM 53.6 °F - 51.8 °F 94% 30.03 in 10.0 mi South 17.3 mph 27.6 mph 0.00 in   Overcast
5:53 PM 54.0 °F - 51.1 °F 90% 30.03 in 10.0 mi South 10.4 mph 24.2 mph 0.00 in   Overcast
6:08 PM 53.6 °F - 51.8 °F 94% 30.03 in 10.0 mi South 13.8 mph 21.9 mph N/A   Overcast
6:53 PM 54.0 °F - 51.1 °F 90% 30.02 in 10.0 mi SSW 15.0 mph 27.6 mph 0.01 in Rain Light Rain
7:14 PM 53.6 °F - 51.8 °F 94% 30.01 in 10.0 mi SSW 12.7 mph 24.2 mph 0.00 in   Overcast
7:53 PM 54.0 °F - 52.0 °F 93% 30.01 in 7.0 mi South 15.0 mph 25.3 mph 0.01 in Rain Rain
8:24 PM 53.6 °F - 51.8 °F 94% 30.00 in 8.0 mi South 10.4 mph 20.7 mph 0.09 in Rain Light Rain
8:53 PM 54.0 °F - 52.0 °F 93% 29.99 in 10.0 mi South 13.8 mph 20.7 mph 0.10 in   Overcast
9:04 PM 53.6 °F - 51.8 °F 94% 29.99 in 10.0 mi South 12.7 mph - N/A   Overcast
9:53 PM 55.0 °F - 52.0 °F 89% 29.98 in 10.0 mi South 12.7 mph 20.7 mph N/A   Overcast
10:07 PM 55.4 °F - 53.6 °F 94% 29.97 in 10.0 mi South 12.7 mph 23.0 mph N/A   Overcast
10:20 PM 55.4 °F - 53.6 °F 94% 29.97 in 10.0 mi South 13.8 mph 19.6 mph N/A   Overcast
10:53 PM 55.9 °F - 53.1 °F 90% 29.96 in 10.0 mi South 13.8 mph 20.7 mph 0.00 in Rain Light Rain
11:17 PM 55.4 °F - 53.6 °F 94% 29.95 in 10.0 mi South 11.5 mph 20.7 mph 0.00 in   Overcast
11:41 PM 55.4 °F - 53.6 °F 94% 29.94 in 10.0 mi SSW 15.0 mph 23.0 mph 0.00 in   Overcast
11:53 PM 55.9 °F - 54.0 °F 93% 29.94 in 10.0 mi South 13.8 mph 23.0 mph 0.00 in   Overcast